Weather History for Oscoda, MI

Change the Weather History Date:

Wednesday, February 27, 2013

  Actual Average Record
Temperature  
Mean Temperature 32 °F -  
Max Temperature 33 °F 31 °F 53 °F (2009)
Min Temperature 32 °F 17 °F -12 °F (2014)
Degree Days  
Heating Degree Days 32    
Moisture  
Dew Point 32 °F    
Average Humidity 96    
Maximum Humidity 99    
Minimum Humidity 94    
Precipitation  
Precipitation 0.00 in - - ()
Sea Level Pressure  
Sea Level Pressure 29.60 in    
Wind  
Wind Speed 18 mph (NE)    
Max Wind Speed 23 mph    
Max Gust Speed 31 mph    
Visibility 6 miles    
Events Rain , Snow    
Averages and records for this station are not official NWS values.
T = Trace of Precipitation, MM = Missing Value Source: NWS Daily Summary

Daily Weather History Graph

Daily Weather History Graph

Search for Another Location

Airport:

Trip Planner

Search our weather history database for the weather conditions in past years. The results will help you decide how hot, cold, wet, or windy it might be!

Date:

Astronomy

Feb. 27, 2013 Rise Set
Actual Time 7:13 AM EST 6:19 PM EST
Civil Twilight 6:44 AM EST 6:48 PM EST
Nautical Twilight 6:11 AM EST 7:22 PM EST
Astronomical Twilight 5:37 AM EST 7:55 PM EST
Moon 8:47 PM EST (2/27) 7:42 AM EST (2/27)
Length of Visible Light 12h 03m
Length of Day
11h 05m
Waning Gibbous, 96% of the Moon is Illuminated
Feb 27
Waning Gibbous
Mar 4
Last Quarter
Mar 11
New
Mar 19
First Quarter
Mar 27
Full

Hourly Weather History & Observations

Time (EST) Temp. Windchill Dew Point Humidity Pressure Visibility Wind Dir Wind Speed Gust Speed Precip Events Conditions
12:13 AM 32.2 °F 19.7 °F 31.1 °F 96% 29.69 in 2.0 mi ENE 21.9 mph 27.6 mph N/A Snow Light Snow
12:33 AM 32.2 °F 19.4 °F 31.1 °F 96% 29.67 in 2.5 mi NE 23.0 mph 31.1 mph N/A Snow Light Snow
12:54 AM 32.2 °F 19.7 °F 31.1 °F 96% 29.67 in 2.0 mi ENE 21.9 mph 29.9 mph N/A Snow Light Snow
1:13 AM 32.2 °F 19.7 °F 31.5 °F 97% 29.66 in 2.0 mi ENE 21.9 mph 29.9 mph N/A Snow Light Snow
1:33 AM 32.2 °F 19.7 °F 31.5 °F 97% 29.65 in 2.0 mi ENE 21.9 mph 28.8 mph N/A Snow Light Snow
1:54 AM 32.4 °F 20.9 °F 31.6 °F 97% 29.64 in 4.0 mi ENE 18.4 mph 24.2 mph N/A Snow Light Snow
2:13 AM 32.5 °F 20.5 °F 31.6 °F 96% 29.63 in 3.0 mi ENE 20.7 mph 27.6 mph N/A Snow Light Snow
2:33 AM 32.5 °F 21.5 °F 31.6 °F 96% 29.63 in 3.0 mi ENE 17.3 mph 27.6 mph N/A Snow Light Snow
2:54 AM 32.4 °F 21.3 °F 31.8 °F 98% 29.61 in 3.0 mi ENE 17.3 mph 26.5 mph N/A Snow Light Snow
3:13 AM 32.9 °F 22.4 °F 31.8 °F 96% 29.61 in 7.0 mi ENE 16.1 mph 21.9 mph N/A   Overcast
3:34 AM 33.1 °F 22.2 °F 32.0 °F 96% 29.60 in 10.0 mi East 17.3 mph 26.5 mph N/A   Overcast
3:53 AM 33.1 °F 21.5 °F 31.6 °F 94% 29.60 in 10.0 mi ENE 19.6 mph 27.6 mph N/A   Overcast
4:13 AM 33.1 °F 22.6 °F 31.6 °F 94% 29.59 in 10.0 mi East 16.1 mph 24.2 mph N/A Rain Light Rain
4:34 AM 32.9 °F 22.0 °F 31.6 °F 95% 29.59 in 5.0 mi ENE 17.3 mph 24.2 mph N/A Snow Light Snow
4:53 AM 32.9 °F 22.0 °F 31.6 °F 95% 29.58 in 4.0 mi ENE 17.3 mph 25.3 mph N/A Snow Light Snow
5:13 AM 32.9 °F 22.0 °F 31.6 °F 95% 29.59 in 5.0 mi East 17.3 mph 26.5 mph N/A Snow Light Snow
5:34 AM 32.9 °F 22.0 °F 31.6 °F 95% 29.59 in 4.0 mi ENE 17.3 mph 25.3 mph N/A Snow Light Snow
5:53 AM 32.9 °F 21.6 °F 31.8 °F 96% 29.58 in 5.0 mi ENE 18.4 mph 25.3 mph N/A Snow Light Snow
6:13 AM 32.9 °F 22.4 °F 31.8 °F 96% 29.59 in 5.0 mi ENE 16.1 mph - N/A Snow Light Snow
6:34 AM 32.9 °F 22.0 °F 31.8 °F 96% 29.59 in 5.0 mi ENE 17.3 mph - N/A Snow Light Snow
6:53 AM 32.5 °F 21.9 °F 31.6 °F 96% 29.59 in 3.0 mi ENE 16.1 mph - N/A Snow Light Snow
7:13 AM 32.4 °F 21.7 °F 31.6 °F 97% 29.59 in 1.8 mi ENE 16.1 mph 21.9 mph N/A Snow Light Snow
7:34 AM 32.2 °F 20.4 °F 31.6 °F 98% 29.60 in 1.5 mi ENE 19.6 mph - N/A Snow Light Snow
7:53 AM 32.4 °F 21.7 °F 31.8 °F 98% 29.60 in 1.2 mi ENE 16.1 mph - N/A Snow Light Snow
8:13 AM 32.4 °F 21.3 °F 31.6 °F 97% 29.60 in 1.2 mi ENE 17.3 mph 20.7 mph N/A Snow Light Snow
8:34 AM 32.2 °F 21.4 °F 31.6 °F 98% 29.60 in 2.5 mi ENE 16.1 mph 23.0 mph N/A Snow Light Snow
8:53 AM 32.4 °F 21.3 °F 32.0 °F 99% 29.60 in 5.0 mi ENE 17.3 mph 21.9 mph N/A Snow Light Snow
9:13 AM 32.5 °F 21.2 °F 32.0 °F 98% 29.60 in 4.0 mi ENE 18.4 mph 21.9 mph N/A Snow Light Snow
9:34 AM 32.9 °F 22.0 °F 32.0 °F 96% 29.60 in 5.0 mi ENE 17.3 mph 23.0 mph N/A Snow Light Snow
9:53 AM 32.9 °F 22.0 °F 32.0 °F 96% 29.59 in 10.0 mi ENE 17.3 mph - N/A   Overcast
10:13 AM 32.9 °F 22.4 °F 32.0 °F 96% 29.59 in 7.0 mi ENE 16.1 mph 23.0 mph N/A   Overcast
10:34 AM 33.3 °F 23.2 °F 32.0 °F 95% 29.59 in 10.0 mi ENE 15.0 mph 23.0 mph N/A   Overcast
10:53 AM 33.3 °F 23.2 °F 32.0 °F 95% 29.59 in 7.0 mi ENE 15.0 mph 21.9 mph N/A   Overcast
11:13 AM 33.1 °F 23.0 °F 32.0 °F 96% 29.59 in 4.0 mi ENE 15.0 mph 21.9 mph N/A Snow Light Snow
11:34 AM 33.1 °F 23.0 °F 32.0 °F 96% 29.60 in 4.0 mi ENE 15.0 mph - N/A Snow Light Snow
11:53 AM 33.3 °F 22.8 °F 32.0 °F 95% 29.60 in 5.0 mi ENE 16.1 mph 20.7 mph N/A Rain Light Rain
12:13 PM 33.3 °F 22.8 °F 32.0 °F 95% 29.60 in 5.0 mi ENE 16.1 mph - N/A   Light Drizzle
12:34 PM 33.4 °F 23.5 °F 32.0 °F 94% 29.59 in 7.0 mi ENE 15.0 mph - N/A   Overcast
12:53 PM 33.4 °F 23.1 °F 32.0 °F 94% 29.59 in 7.0 mi ENE 16.1 mph - N/A   Overcast
1:13 PM 33.4 °F 23.5 °F 32.0 °F 94% 29.59 in 10.0 mi ENE 15.0 mph 23.0 mph N/A   Overcast
1:34 PM 33.3 °F 22.8 °F 32.0 °F 95% 29.59 in 10.0 mi ENE 16.1 mph 19.6 mph N/A   Overcast
1:53 PM 32.9 °F 22.0 °F 32.0 °F 96% 29.58 in 7.0 mi NE 17.3 mph 21.9 mph N/A   Overcast
2:14 PM 32.9 °F 22.8 °F 32.0 °F 96% 29.57 in 7.0 mi ENE 15.0 mph 20.7 mph N/A   Overcast
2:34 PM 32.9 °F 22.4 °F 32.0 °F 96% 29.57 in 5.0 mi NE 16.1 mph - N/A   Light Drizzle
2:53 PM 32.9 °F 22.8 °F 32.0 °F 96% 29.57 in 1.2 mi NE 15.0 mph - N/A Snow Light Snow
3:13 PM 32.9 °F 22.0 °F 32.0 °F 96% 29.57 in 7.0 mi NE 17.3 mph - N/A Snow Light Snow
3:34 PM 32.9 °F 23.2 °F 32.0 °F 96% 29.57 in 7.0 mi NE 13.8 mph - N/A   Overcast
3:53 PM 32.9 °F 22.8 °F 32.0 °F 96% 29.58 in 5.0 mi NE 15.0 mph 21.9 mph N/A   Overcast
4:14 PM 32.9 °F 23.2 °F 32.0 °F 96% 29.58 in 5.0 mi NE 13.8 mph 24.2 mph N/A   Overcast
4:33 PM 32.9 °F 23.2 °F 32.0 °F 96% 29.59 in 4.0 mi NE 13.8 mph 19.6 mph N/A   Overcast
4:53 PM 32.9 °F 22.8 °F 32.0 °F 96% 29.59 in 3.0 mi NE 15.0 mph 20.7 mph N/A Rain Light Rain
5:14 PM 32.9 °F 22.4 °F 32.0 °F 96% 29.59 in 3.0 mi NE 16.1 mph - N/A Rain Light Rain
5:33 PM 32.5 °F 21.9 °F 32.0 °F 98% 29.59 in 4.0 mi NE 16.1 mph - N/A Snow Light Snow
5:53 PM 32.4 °F 23.0 °F 31.8 °F 98% 29.60 in 4.0 mi NE 12.7 mph - N/A Snow Light Snow
6:14 PM 32.2 °F 21.8 °F 31.6 °F 98% 29.60 in 3.0 mi NNE 15.0 mph 20.7 mph N/A Snow Light Snow
6:33 PM 32.2 °F 22.3 °F 31.6 °F 98% 29.60 in 3.0 mi NE 13.8 mph - N/A Snow Light Snow
6:53 PM 32.2 °F 21.1 °F 31.8 °F 99% 29.60 in 3.0 mi NE 17.3 mph - N/A Snow Light Snow
7:14 PM 32.2 °F 21.4 °F 31.6 °F 98% 29.61 in 2.0 mi NE 16.1 mph - N/A Snow Light Snow
7:33 PM 32.2 °F 21.4 °F 31.8 °F 99% 29.61 in 7.0 mi NE 16.1 mph 25.3 mph N/A Snow Light Snow
7:53 PM 32.4 °F 22.5 °F 31.8 °F 98% 29.61 in 7.0 mi NNE 13.8 mph - N/A Snow Light Snow
8:14 PM 32.4 °F 22.1 °F 31.8 °F 98% 29.61 in 10.0 mi NE 15.0 mph 23.0 mph N/A Snow Light Snow
8:33 PM 32.4 °F 22.5 °F 31.8 °F 98% 29.60 in 7.0 mi NNE 13.8 mph - N/A Snow Light Snow
8:53 PM 32.4 °F 22.5 °F 31.8 °F 98% 29.60 in 10.0 mi NNE 13.8 mph 19.6 mph N/A Snow Light Snow
9:14 PM 32.4 °F 21.7 °F 32.0 °F 99% 29.60 in 10.0 mi NNE 16.1 mph - N/A   Overcast
9:33 PM 32.5 °F 22.3 °F 31.8 °F 97% 29.60 in 10.0 mi NNE 15.0 mph 20.7 mph N/A Snow Light Snow
9:53 PM 32.5 °F 21.9 °F 31.8 °F 97% 29.60 in 10.0 mi NNE 16.1 mph 24.2 mph N/A   Overcast
10:14 PM 32.5 °F 22.3 °F 31.8 °F 97% 29.60 in 7.0 mi NNE 15.0 mph - N/A Snow Light Snow
10:33 PM 32.5 °F 22.3 °F 31.8 °F 97% 29.60 in 5.0 mi NNE 15.0 mph 19.6 mph N/A Snow Light Snow
10:53 PM 32.5 °F 23.2 °F 31.8 °F 97% 29.60 in 10.0 mi NNE 12.7 mph - N/A Snow Light Snow
11:14 PM 32.5 °F 22.7 °F 31.8 °F 97% 29.60 in 10.0 mi NNE 13.8 mph 21.9 mph N/A   Overcast
11:33 PM 32.7 °F 23.0 °F 31.8 °F 96% 29.59 in 10.0 mi NNE 13.8 mph 19.6 mph N/A   Overcast
11:53 PM 32.5 °F 23.2 °F 31.8 °F 97% 29.59 in 5.0 mi NNE 12.7 mph 19.6 mph N/A   Overcast